QPF
0.00 0.00 0.00 0.00 0.00 0.00 0.00 0.00 0.00 0.00 0.00 0.00 0.00 0.00 0.01 0.01 0.01 0.01 0.01 0.02 0.01 0.01 0.02 0.03 0.03 0.03 0.03 0.04 0.03 0.03 0.03 0.02 0.02 0.02 0.03 0.04 0.04 0.05 0.06 0.06 0.06 0.07 0.06 0.07 0.05 0.05 0.04 0.06 0.06
0.00 0.00 0.00 0.00 0.00 0.00 0.00 0.00 0.00 0.00 0.00 0.00 0.00 0.00 0.00 0.01 0.00 0.00 0.01 0.01 0.00 0.01 0.01 0.01 0.02 0.02 0.03 0.03 0.03 0.03 0.03 0.02 0.02 0.03 0.04 0.05 0.06 0.06 0.06 0.06 0.07 0.06 0.05 0.04 0.04 0.04 0.05 0.06 0.06
0.00 0.00 0.00 0.00 0.00 0.00 0.00 0.00 0.00 0.00 0.00 0.00 0.00 0.00 0.00 0.00 0.00 0.00 0.00 0.00 0.00 0.00 0.01 0.01 0.02 0.02 0.02 0.02 0.02 0.02 0.02 0.02 0.02 0.03 0.04 0.04 0.06 0.06 0.06 0.05 0.04 0.03 0.03 0.04 0.05 0.06 0.07 0.06 0.06
0.00 0.00 0.00 0.00 0.00 0.00 0.00 0.00 0.00 0.00 0.00 0.00 0.00 0.00 0.00 0.01 0.00 0.00 0.00 0.00 0.00 0.00 0.00 0.01 0.03 0.02 0.02 0.01 0.01 0.01 0.02 0.02 0.02 0.04 0.04 0.05 0.05 0.05 0.05 0.04 0.04 0.04 0.05 0.05 0.07 0.07 0.07 0.07 0.06
0.00 0.00 0.00 0.00 0.00 0.00 0.00 0.00 0.00 0.00 0.00 0.00 0.00 0.00 0.01 0.01 0.01 0.00 0.00 0.00 0.00 0.00 0.01 0.02 0.03 0.03 0.02 0.01 0.01 0.02 0.02 0.02 0.03 0.03 0.03 0.04 0.05 0.04 0.05 0.05 0.05 0.04 0.03 0.04 0.07 0.07 0.06 0.05 0.04
0.00 0.00 0.00 0.00 0.00 0.00 0.00 0.00 0.00 0.00 0.00 0.00 0.00 0.00 0.01 0.02 0.02 0.01 0.00 0.01 0.01 0.01 0.02 0.03 0.03 0.03 0.02 0.02 0.01 0.01 0.02 0.03 0.02 0.03 0.04 0.03 0.04 0.04 0.05 0.05 0.04 0.04 0.03 0.03 0.05 0.06 0.05 0.04 0.04
0.00 0.00 0.00 0.00 0.00 0.00 0.00 0.00 0.00 0.00 0.00 0.00 0.00 0.00 0.01 0.01 0.02 0.01 0.00 0.01 0.02 0.02 0.01 0.02 0.02 0.02 0.02 0.02 0.02 0.02 0.02 0.03 0.02 0.03 0.04 0.03 0.04 0.04 0.05 0.04 0.05 0.04 0.03 0.04 0.05 0.06 0.05 0.05 0.05
0.00 0.00 0.00 0.00 0.00 0.00 0.00 0.00 0.00 0.00 0.00 0.00 0.00 0.00 0.00 0.01 0.01 0.00 0.01 0.01 0.02 0.03 0.02 0.01 0.01 0.02 0.03 0.02 0.02 0.02 0.03 0.03 0.03 0.03 0.03 0.03 0.03 0.03 0.04 0.04 0.06 0.05 0.06 0.07 0.05 0.06 0.07 0.06 0.05
0.00 0.00 0.00 0.00 0.00 0.00 0.00 0.00 0.00 0.00 0.00 0.00 0.00 0.00 0.00 0.00 0.00 0.01 0.02 0.01 0.01 0.01 0.02 0.01 0.01 0.01 0.02 0.02 0.02 0.03 0.03 0.03 0.03 0.04 0.03 0.04 0.06 0.05 0.04 0.03 0.04 0.05 0.06 0.05 0.05 0.05 0.06 0.05 0.05
0.00 0.00 0.00 0.00 0.00 0.00 0.00 0.00 0.00 0.00 0.00 0.00 0.00 0.00 0.00 0.01 0.01 0.01 0.02 0.03 0.02 0.01 0.01 0.01 0.01 0.01 0.01 0.02 0.03 0.05 0.05 0.05 0.05 0.05 0.03 0.05 0.05 0.05 0.04 0.03 0.04 0.04 0.05 0.05 0.04 0.03 0.02 0.03 0.03
0.00 0.00 0.00 0.00 0.00 0.00 0.00 0.00 0.00 0.00 0.00 0.00 0.00 0.00 0.01 0.01 0.01 0.00 0.01 0.02 0.02 0.01 0.01 0.01 0.02 0.02 0.02 0.03 0.04 0.05 0.05 0.04 0.04 0.04 0.03 0.04 0.03 0.04 0.04 0.06 0.06 0.05 0.04 0.03 0.03 0.02 0.02 0.02 0.04
0.00 0.00 0.00 0.00 0.00 0.00 0.00 0.00 0.00 0.00 0.00 0.00 0.00 0.00 0.01 0.02 0.01 0.01 0.02 0.02 0.02 0.02 0.02 0.02 0.03 0.03 0.03 0.04 0.05 0.05 0.04 0.03 0.03 0.03 0.02 0.03 0.04 0.04 0.03 0.04 0.04 0.04 0.04 0.03 0.03 0.03 0.03 0.02 0.03
0.00 0.00 0.00 0.00 0.00 0.00 0.00 0.00 0.00 0.00 0.00 0.00 0.00 0.00 0.01 0.01 0.02 0.02 0.03 0.03 0.03 0.03 0.02 0.03 0.03 0.03 0.04 0.05 0.05 0.05 0.04 0.04 0.03 0.04 0.03 0.02 0.03 0.04 0.05 0.04 0.03 0.03 0.02 0.02 0.03 0.03 0.04 0.03 0.03
0.00 0.00 0.00 0.00 0.00 0.00 0.00 0.00 0.00 0.00 0.00 0.00 0.00 0.00 0.01 0.02 0.03 0.03 0.03 0.05 0.05 0.04 0.03 0.03 0.03 0.03 0.04 0.06 0.05 0.05 0.05 0.06 0.06 0.05 0.04 0.03 0.03 0.04 0.06 0.05 0.05 0.03 0.02 0.03 0.05 0.04 0.04 0.04 0.04
0.00 0.00 0.00 0.00 0.00 0.00 0.00 0.00 0.00 0.00 0.00 0.00 0.00 0.01 0.03 0.04 0.05 0.05 0.06 0.08 0.09 0.05 0.04 0.06 0.05 0.04 0.07 0.09 0.08 0.05 0.04 0.04 0.06 0.06 0.05 0.04 0.04 0.05 0.06 0.06 0.06 0.05 0.04 0.05 0.05 0.06 0.06 0.05 0.04
0.00 0.00 0.00 0.00 0.00 0.00 0.00 0.00 0.00 0.00 0.00 0.00 0.01 0.02 0.03 0.03 0.03 0.05 0.07 0.10 0.14 0.08 0.06 0.06 0.05 0.04 0.08 0.14 0.16 0.10 0.07 0.07 0.07 0.07 0.06 0.05 0.05 0.05 0.05 0.06 0.07 0.07 0.06 0.07 0.07 0.08 0.08 0.08 0.07
0.00 0.00 0.00 0.00 0.00 0.00 0.00 0.00 0.00 0.00 0.00 0.01 0.01 0.02 0.03 0.03 0.02 0.02 0.04 0.08 0.13 0.09 0.09 0.09 0.08 0.07 0.08 0.12 0.20 0.19 0.11 0.08 0.08 0.07 0.07 0.06 0.07 0.05 0.06 0.08 0.08 0.06 0.07 0.07 0.05 0.06 0.08 0.09 0.08
0.00 0.00 0.00 0.00 0.00 0.00 0.00 0.00 0.00 0.00 0.00 0.01 0.01 0.01 0.02 0.02 0.01 0.01 0.01 0.04 0.07 0.09 0.08 0.07 0.08 0.07 0.06 0.08 0.17 0.25 0.14 0.09 0.07 0.07 0.08 0.08 0.07 0.06 0.08 0.07 0.06 0.05 0.07 0.07 0.07 0.09 0.09 0.09 0.07
0.00 0.00 0.00 0.00 0.00 0.00 0.00 0.00 0.00 0.00 0.00 0.00 0.01 0.01 0.02 0.02 0.01 0.00 0.00 0.01 0.02 0.05 0.05 0.05 0.09 0.12 0.12 0.11 0.11 0.13 0.11 0.08 0.07 0.06 0.07 0.07 0.07 0.07 0.10 0.06 0.07 0.06 0.06 0.07 0.06 0.08 0.08 0.07 0.06
0.00 0.00 0.00 0.00 0.00 0.00 0.00 0.00 0.00 0.00 0.00 0.00 0.00 0.00 0.01 0.01 0.01 0.00 0.00 0.01 0.01 0.02 0.02 0.05 0.08 0.09 0.09 0.10 0.10 0.09 0.09 0.08 0.08 0.09 0.09 0.08 0.07 0.06 0.06 0.08 0.07 0.06 0.06 0.07 0.08 0.10 0.11 0.08 0.06
0.00 0.00 0.00 0.00 0.00 0.00 0.00 0.00 0.00 0.00 0.00 0.00 0.00 0.01 0.01 0.01 0.01 0.01 0.01 0.02 0.02 0.02 0.02 0.05 0.05 0.05 0.05 0.06 0.08 0.07 0.08 0.10 0.12 0.13 0.11 0.07 0.05 0.06 0.05 0.05 0.06 0.07 0.05 0.07 0.10 0.10 0.13 0.12 0.07
0.00 0.00 0.00 0.00 0.00 0.00 0.00 0.00 0.00 0.00 0.00 0.00 0.00 0.00 0.01 0.00 0.00 0.01 0.01 0.02 0.03 0.03 0.03 0.04 0.04 0.04 0.06 0.06 0.06 0.06 0.06 0.08 0.11 0.13 0.11 0.08 0.06 0.06 0.06 0.05 0.07 0.08 0.06 0.08 0.07 0.06 0.09 0.10 0.09
0.00 0.00 0.00 0.00 0.00 0.00 0.00 0.00 0.00 0.00 0.00 0.00 0.00 0.00 0.00 0.00 0.00 0.01 0.01 0.01 0.02 0.03 0.03 0.04 0.04 0.04 0.06 0.06 0.05 0.06 0.06 0.07 0.09 0.09 0.12 0.11 0.08 0.08 0.06 0.07 0.09 0.09 0.07 0.08 0.09 0.09 0.08 0.08 0.10
0.00 0.00 0.00 0.00 0.00 0.00 0.00 0.00 0.00 0.00 0.00 0.00 0.00 0.00 0.00 0.00 0.00 0.00 0.00 0.01 0.01 0.02 0.03 0.03 0.04 0.03 0.03 0.04 0.04 0.06 0.07 0.07 0.08 0.09 0.08 0.07 0.07 0.08 0.06 0.06 0.08 0.09 0.10 0.08 0.08 0.07 0.07 0.08 0.09
0.00 0.00 0.00 0.00 0.00 0.00 0.00 0.00 0.00 0.00 0.00 0.00 0.00 0.00 0.00 0.00 0.00 0.00 0.00 0.00 0.01 0.02 0.02 0.03 0.04 0.03 0.03 0.02 0.04 0.05 0.06 0.06 0.06 0.07 0.07 0.08 0.06 0.06 0.08 0.06 0.08 0.08 0.08 0.08 0.10 0.09 0.08 0.08 0.10
0.00 0.00 0.00 0.00 0.00 0.00 0.00 0.00 0.00 0.00 0.00 0.00 0.00 0.00 0.00 0.00 0.00 0.00 0.00 0.00 0.01 0.03 0.03 0.03 0.04 0.03 0.01 0.01 0.03 0.03 0.04 0.04 0.04 0.05 0.06 0.07 0.05 0.04 0.05 0.06 0.06 0.05 0.06 0.06 0.10 0.10 0.10 0.09 0.09
0.00 0.00 0.00 0.00 0.00 0.00 0.00 0.00 0.00 0.00 0.00 0.00 0.00 0.00 0.00 0.00 0.00 0.00 0.00 0.01 0.02 0.02 0.02 0.02 0.04 0.03 0.01 0.02 0.03 0.02 0.03 0.04 0.05 0.05 0.05 0.06 0.05 0.04 0.05 0.06 0.06 0.06 0.05 0.05 0.08 0.08 0.08 0.09 0.10
0.00 0.00 0.00 0.00 0.00 0.00 0.00 0.00 0.00 0.00 0.00 0.00 0.00 0.00 0.00 0.00 0.00 0.00 0.00 0.01 0.01 0.01 0.01 0.02 0.03 0.03 0.02 0.02 0.02 0.02 0.02 0.03 0.04 0.03 0.04 0.05 0.05 0.05 0.06 0.07 0.07 0.06 0.05 0.05 0.06 0.08 0.08 0.08 0.07
0.00 0.00 0.00 0.00 0.00 0.00 0.00 0.00 0.00 0.00 0.00 0.00 0.00 0.00 0.00 0.00 0.00 0.01 0.01 0.00 0.00 0.01 0.01 0.01 0.03 0.03 0.03 0.03 0.02 0.02 0.01 0.02 0.03 0.04 0.04 0.04 0.05 0.06 0.07 0.08 0.07 0.07 0.06 0.07 0.09 0.07 0.06 0.06 0.06
0.00 0.00 0.00 0.00 0.00 0.00 0.00 0.00 0.00 0.00 0.00 0.00 0.00 0.00 0.00 0.00 0.00 0.01 0.00 0.00 0.01 0.00 0.01 0.01 0.03 0.04 0.04 0.02 0.01 0.01 0.01 0.02 0.03 0.03 0.03 0.04 0.06 0.07 0.06 0.06 0.08 0.07 0.05 0.05 0.06 0.05 0.05 0.05 0.05
MSLP
1007.48 1008.03 1008.77 1009.63 1010.50 1011.28 1011.91 1012.36 1012.64 1012.77 1012.83 1012.86 1012.89 1012.93 1012.97 1012.99 1012.97 1012.91 1012.85 1012.82 1012.88 1013.08 1013.45 1013.96 1014.57 1015.18 1015.72 1016.10 1016.30 1016.31 1016.17 1015.95 1015.75 1015.61 1015.57 1015.64 1015.78 1015.93 1016.06 1016.12 1016.12 1016.08 1016.05 1016.06 1016.16 1016.35 1016.61 1016.91 1017.20
1007.67 1008.39 1009.30 1010.28 1011.21 1011.99 1012.56 1012.90 1013.02 1012.99 1012.89 1012.78 1012.72 1012.71 1012.74 1012.78 1012.82 1012.83 1012.83 1012.87 1013.00 1013.25 1013.65 1014.18 1014.80 1015.42 1015.95 1016.33 1016.52 1016.52 1016.38 1016.17 1015.96 1015.82 1015.78 1015.84 1015.95 1016.08 1016.17 1016.20 1016.16 1016.11 1016.07 1016.09 1016.22 1016.45 1016.77 1017.12 1017.46
1007.98 1008.84 1009.84 1010.88 1011.81 1012.55 1013.03 1013.25 1013.24 1013.08 1012.87 1012.69 1012.59 1012.57 1012.63 1012.72 1012.81 1012.88 1012.94 1013.02 1013.16 1013.42 1013.80 1014.31 1014.90 1015.49 1016.01 1016.39 1016.59 1016.62 1016.51 1016.34 1016.18 1016.07 1016.05 1016.11 1016.20 1016.30 1016.34 1016.33 1016.26 1016.18 1016.13 1016.17 1016.33 1016.60 1016.96 1017.35 1017.71
1008.42 1009.34 1010.38 1011.40 1012.28 1012.93 1013.30 1013.40 1013.29 1013.06 1012.80 1012.60 1012.51 1012.53 1012.63 1012.78 1012.93 1013.04 1013.13 1013.21 1013.34 1013.56 1013.90 1014.36 1014.89 1015.44 1015.93 1016.30 1016.53 1016.60 1016.57 1016.48 1016.39 1016.34 1016.36 1016.43 1016.52 1016.58 1016.59 1016.53 1016.44 1016.34 1016.30 1016.36 1016.54 1016.84 1017.22 1017.62 1017.97
1008.93 1009.87 1010.87 1011.81 1012.59 1013.12 1013.37 1013.38 1013.20 1012.93 1012.68 1012.51 1012.47 1012.56 1012.74 1012.95 1013.14 1013.28 1013.37 1013.44 1013.53 1013.70 1013.97 1014.36 1014.82 1015.32 1015.78 1016.15 1016.40 1016.54 1016.58 1016.57 1016.56 1016.59 1016.66 1016.76 1016.85 1016.90 1016.89 1016.82 1016.71 1016.62 1016.60 1016.68 1016.88 1017.19 1017.56 1017.93 1018.24
1009.45 1010.34 1011.26 1012.08 1012.71 1013.11 1013.25 1013.18 1012.97 1012.72 1012.52 1012.43 1012.49 1012.66 1012.91 1013.18 1013.40 1013.55 1013.64 1013.68 1013.73 1013.85 1014.06 1014.38 1014.79 1015.23 1015.66 1016.02 1016.29 1016.47 1016.57 1016.63 1016.70 1016.79 1016.91 1017.04 1017.15 1017.20 1017.20 1017.14 1017.05 1016.99 1016.99 1017.10 1017.31 1017.62 1017.96 1018.28 1018.52
1009.89 1010.71 1011.49 1012.17 1012.65 1012.91 1012.96 1012.84 1012.64 1012.45 1012.34 1012.36 1012.52 1012.79 1013.11 1013.43 1013.68 1013.84 1013.91 1013.94 1013.97 1014.05 1014.23 1014.50 1014.86 1015.26 1015.65 1015.99 1016.25 1016.44 1016.57 1016.68 1016.79 1016.92 1017.08 1017.23 1017.36 1017.45 1017.47 1017.44 1017.39 1017.37 1017.42 1017.55 1017.78 1018.06 1018.35 1018.60 1018.75
1010.21 1010.91 1011.55 1012.06 1012.39 1012.53 1012.50 1012.37 1012.22 1012.11 1012.12 1012.27 1012.54 1012.91 1013.30 1013.66 1013.93 1014.10 1014.18 1014.21 1014.24 1014.33 1014.50 1014.76 1015.09 1015.46 1015.81 1016.11 1016.34 1016.50 1016.61 1016.71 1016.83 1016.97 1017.14 1017.32 1017.47 1017.59 1017.65 1017.67 1017.68 1017.72 1017.81 1017.97 1018.19 1018.45 1018.69 1018.86 1018.92
1010.37 1010.95 1011.43 1011.77 1011.96 1012.00 1011.92 1011.81 1011.71 1011.72 1011.85 1012.12 1012.51 1012.97 1013.42 1013.82 1014.12 1014.31 1014.41 1014.47 1014.54 1014.67 1014.87 1015.15 1015.48 1015.82 1016.13 1016.37 1016.54 1016.64 1016.70 1016.76 1016.84 1016.97 1017.13 1017.31 1017.49 1017.64 1017.74 1017.82 1017.89 1017.97 1018.10 1018.28 1018.50 1018.72 1018.90 1019.00 1019.00
1010.42 1010.86 1011.18 1011.37 1011.43 1011.38 1011.27 1011.18 1011.16 1011.27 1011.53 1011.92 1012.41 1012.94 1013.45 1013.88 1014.20 1014.43 1014.57 1014.69 1014.83 1015.02 1015.29 1015.61 1015.96 1016.29 1016.56 1016.74 1016.83 1016.85 1016.83 1016.82 1016.85 1016.93 1017.07 1017.25 1017.44 1017.62 1017.77 1017.89 1018.00 1018.13 1018.28 1018.46 1018.66 1018.85 1018.99 1019.04 1018.99
1010.43 1010.73 1010.90 1010.94 1010.88 1010.75 1010.62 1010.55 1010.60 1010.80 1011.16 1011.65 1012.22 1012.80 1013.35 1013.81 1014.17 1014.43 1014.64 1014.84 1015.06 1015.35 1015.69 1016.08 1016.46 1016.79 1017.02 1017.15 1017.16 1017.09 1016.99 1016.91 1016.87 1016.92 1017.03 1017.20 1017.40 1017.60 1017.77 1017.92 1018.06 1018.20 1018.36 1018.53 1018.71 1018.86 1018.96 1018.98 1018.91
1010.48 1010.66 1010.69 1010.60 1010.43 1010.23 1010.07 1010.01 1010.10 1010.37 1010.80 1011.35 1011.97 1012.59 1013.16 1013.64 1014.03 1014.34 1014.61 1014.89 1015.21 1015.59 1016.02 1016.47 1016.89 1017.22 1017.44 1017.52 1017.47 1017.34 1017.17 1017.02 1016.94 1016.95 1017.05 1017.21 1017.41 1017.62 1017.81 1017.97 1018.11 1018.25 1018.39 1018.53 1018.68 1018.80 1018.87 1018.88 1018.81
1010.67 1010.73 1010.64 1010.43 1010.16 1009.89 1009.69 1009.63 1009.74 1010.04 1010.50 1011.08 1011.71 1012.34 1012.92 1013.41 1013.82 1014.17 1014.50 1014.86 1015.26 1015.72 1016.23 1016.73 1017.18 1017.53 1017.73 1017.78 1017.70 1017.53 1017.33 1017.16 1017.06 1017.05 1017.14 1017.31 1017.51 1017.72 1017.91 1018.07 1018.20 1018.31 1018.42 1018.53 1018.64 1018.73 1018.79 1018.79 1018.74
1011.04 1011.01 1010.82 1010.51 1010.16 1009.82 1009.58 1009.49 1009.59 1009.88 1010.33 1010.90 1011.52 1012.13 1012.70 1013.19 1013.61 1013.99 1014.37 1014.77 1015.23 1015.75 1016.30 1016.84 1017.31 1017.66 1017.87 1017.92 1017.83 1017.66 1017.46 1017.29 1017.20 1017.21 1017.31 1017.49 1017.70 1017.91 1018.09 1018.23 1018.34 1018.42 1018.49 1018.57 1018.65 1018.72 1018.77 1018.78 1018.74
1011.57 1011.47 1011.21 1010.83 1010.41 1010.02 1009.74 1009.61 1009.67 1009.92 1010.34 1010.86 1011.44 1012.02 1012.55 1013.03 1013.46 1013.85 1014.25 1014.68 1015.17 1015.71 1016.27 1016.81 1017.28 1017.64 1017.85 1017.91 1017.85 1017.71 1017.55 1017.42 1017.36 1017.39 1017.52 1017.70 1017.92 1018.13 1018.30 1018.43 1018.52 1018.57 1018.62 1018.67 1018.72 1018.78 1018.83 1018.85 1018.82
1012.19 1012.05 1011.74 1011.33 1010.87 1010.46 1010.14 1009.98 1009.99 1010.19 1010.53 1010.99 1011.50 1012.02 1012.51 1012.97 1013.38 1013.78 1014.18 1014.62 1015.10 1015.63 1016.17 1016.70 1017.15 1017.50 1017.72 1017.81 1017.79 1017.70 1017.59 1017.51 1017.49 1017.56 1017.70 1017.90 1018.11 1018.32 1018.49 1018.61 1018.68 1018.73 1018.77 1018.81 1018.86 1018.91 1018.96 1018.99 1018.97
1012.80 1012.64 1012.33 1011.92 1011.47 1011.06 1010.74 1010.54 1010.50 1010.63 1010.89 1011.25 1011.68 1012.13 1012.57 1013.00 1013.40 1013.78 1014.18 1014.61 1015.07 1015.56 1016.07 1016.55 1016.97 1017.31 1017.53 1017.65 1017.67 1017.64 1017.59 1017.56 1017.59 1017.67 1017.82 1018.01 1018.22 1018.41 1018.58 1018.70 1018.78 1018.84 1018.89 1018.94 1019.00 1019.07 1019.12 1019.15 1019.13
1013.30 1013.15 1012.87 1012.51 1012.12 1011.75 1011.44 1011.23 1011.15 1011.19 1011.35 1011.61 1011.93 1012.30 1012.69 1013.08 1013.46 1013.85 1014.24 1014.65 1015.08 1015.53 1015.98 1016.41 1016.79 1017.11 1017.34 1017.49 1017.56 1017.58 1017.58 1017.59 1017.63 1017.72 1017.86 1018.02 1018.20 1018.37 1018.53 1018.66 1018.76 1018.85 1018.92 1019.01 1019.09 1019.17 1019.24 1019.28 1019.26
1013.62 1013.50 1013.29 1013.03 1012.74 1012.45 1012.19 1011.98 1011.85 1011.81 1011.86 1012.00 1012.21 1012.49 1012.82 1013.17 1013.54 1013.93 1014.32 1014.71 1015.12 1015.52 1015.93 1016.31 1016.66 1016.96 1017.20 1017.37 1017.48 1017.55 1017.59 1017.61 1017.65 1017.72 1017.80 1017.92 1018.05 1018.19 1018.33 1018.47 1018.60 1018.72 1018.84 1018.96 1019.08 1019.18 1019.26 1019.30 1019.29
1013.76 1013.70 1013.60 1013.46 1013.30 1013.12 1012.93 1012.74 1012.57 1012.44 1012.37 1012.37 1012.47 1012.65 1012.91 1013.23 1013.59 1013.98 1014.38 1014.78 1015.17 1015.55 1015.91 1016.26 1016.58 1016.86 1017.11 1017.31 1017.46 1017.56 1017.62 1017.65 1017.67 1017.68 1017.71 1017.75 1017.82 1017.91 1018.03 1018.17 1018.32 1018.48 1018.64 1018.80 1018.94 1019.06 1019.14 1019.19 1019.17
1013.74 1013.77 1013.81 1013.84 1013.83 1013.78 1013.66 1013.49 1013.27 1013.05 1012.85 1012.72 1012.69 1012.76 1012.95 1013.24 1013.60 1014.00 1014.42 1014.83 1015.22 1015.58 1015.92 1016.24 1016.54 1016.83 1017.09 1017.32 1017.50 1017.64 1017.71 1017.73 1017.71 1017.66 1017.61 1017.56 1017.56 1017.59 1017.67 1017.80 1017.96 1018.15 1018.34 1018.52 1018.68 1018.80 1018.88 1018.91 1018.90
1013.67 1013.81 1014.00 1014.20 1014.36 1014.43 1014.39 1014.23 1013.97 1013.65 1013.32 1013.05 1012.88 1012.86 1012.98 1013.23 1013.59 1014.00 1014.44 1014.86 1015.26 1015.61 1015.94 1016.24 1016.54 1016.82 1017.10 1017.36 1017.58 1017.74 1017.83 1017.84 1017.78 1017.67 1017.54 1017.42 1017.33 1017.30 1017.34 1017.44 1017.60 1017.79 1017.99 1018.17 1018.32 1018.42 1018.48 1018.50 1018.48
1013.62 1013.88 1014.23 1014.60 1014.91 1015.10 1015.13 1014.97 1014.66 1014.24 1013.79 1013.39 1013.10 1012.98 1013.03 1013.25 1013.60 1014.02 1014.47 1014.91 1015.30 1015.65 1015.96 1016.24 1016.52 1016.81 1017.11 1017.39 1017.64 1017.84 1017.95 1017.96 1017.88 1017.72 1017.53 1017.34 1017.18 1017.09 1017.08 1017.15 1017.29 1017.47 1017.65 1017.81 1017.93 1017.99 1018.01 1018.00 1017.96
1013.65 1014.04 1014.53 1015.05 1015.49 1015.77 1015.85 1015.70 1015.34 1014.84 1014.28 1013.77 1013.38 1013.17 1013.16 1013.35 1013.68 1014.11 1014.56 1014.99 1015.37 1015.69 1015.96 1016.22 1016.48 1016.76 1017.06 1017.36 1017.64 1017.87 1018.01 1018.03 1017.95 1017.78 1017.55 1017.31 1017.10 1016.96 1016.91 1016.95 1017.06 1017.21 1017.36 1017.48 1017.55 1017.56 1017.53 1017.47 1017.41
1013.77 1014.27 1014.88 1015.50 1016.04 1016.39 1016.51 1016.36 1015.97 1015.41 1014.78 1014.19 1013.74 1013.47 1013.42 1013.57 1013.89 1014.29 1014.72 1015.12 1015.46 1015.73 1015.96 1016.16 1016.38 1016.63 1016.92 1017.23 1017.53 1017.78 1017.95 1018.01 1017.94 1017.78 1017.54 1017.29 1017.06 1016.89 1016.81 1016.83 1016.90 1017.02 1017.13 1017.21 1017.22 1017.18 1017.10 1016.99 1016.90
1013.94 1014.52 1015.21 1015.90 1016.49 1016.88 1017.02 1016.88 1016.48 1015.91 1015.26 1014.65 1014.16 1013.87 1013.80 1013.93 1014.21 1014.58 1014.96 1015.31 1015.58 1015.78 1015.93 1016.06 1016.21 1016.41 1016.67 1016.97 1017.28 1017.55 1017.75 1017.84 1017.81 1017.67 1017.46 1017.22 1017.00 1016.83 1016.74 1016.74 1016.80 1016.88 1016.96 1017.00 1016.98 1016.89 1016.76 1016.61 1016.49
1014.10 1014.71 1015.43 1016.14 1016.74 1017.15 1017.31 1017.19 1016.82 1016.28 1015.67 1015.09 1014.63 1014.35 1014.27 1014.38 1014.63 1014.95 1015.27 1015.53 1015.71 1015.82 1015.87 1015.91 1015.98 1016.12 1016.32 1016.59 1016.88 1017.16 1017.38 1017.51 1017.52 1017.42 1017.26 1017.05 1016.86 1016.72 1016.65 1016.65 1016.70 1016.78 1016.84 1016.86 1016.81 1016.70 1016.54 1016.37 1016.23
1014.17 1014.77 1015.46 1016.14 1016.73 1017.14 1017.31 1017.24 1016.94 1016.48 1015.96 1015.46 1015.08 1014.85 1014.79 1014.89 1015.10 1015.35 1015.59 1015.76 1015.84 1015.84 1015.79 1015.73 1015.71 1015.77 1015.91 1016.12 1016.38 1016.65 1016.88 1017.03 1017.08 1017.03 1016.92 1016.78 1016.64 1016.54 1016.50 1016.53 1016.60 1016.68 1016.75 1016.76 1016.72 1016.61 1016.45 1016.28 1016.13
1014.11 1014.66 1015.27 1015.89 1016.43 1016.83 1017.03 1017.02 1016.83 1016.50 1016.12 1015.76 1015.47 1015.32 1015.30 1015.40 1015.57 1015.75 1015.90 1015.97 1015.94 1015.84 1015.70 1015.55 1015.44 1015.41 1015.48 1015.64 1015.85 1016.09 1016.30 1016.46 1016.54 1016.55 1016.49 1016.42 1016.34 1016.30 1016.31 1016.38 1016.48 1016.59 1016.67 1016.71 1016.69 1016.61 1016.49 1016.34 1016.21
1013.95 1014.40 1014.91 1015.44 1015.92 1016.30 1016.54 1016.62 1016.56 1016.39 1016.18 1015.97 1015.82 1015.76 1015.78 1015.87 1016.00 1016.11 1016.17 1016.15 1016.03 1015.85 1015.62 1015.40 1015.22 1015.12 1015.12 1015.21 1015.36 1015.55 1015.74 1015.89 1015.99 1016.03 1016.04 1016.03 1016.03 1016.05 1016.12 1016.24 1016.37 1016.51 1016.63 1016.71 1016.73 1016.69 1016.62 1016.52 1016.43
Thickness
5852 5857 5858 5853 5840 5818 5800 5803 5810 5805 5803 5808 5808 5803 5796 5788 5782 5768 5786 5794 5791 5787 5780 5773 5769 5768 5766 5765 5764 5763 5762 5761 5760 5759 5758 5758 5757 5757 5756 5755 5754 5754 5753 5752 5751 5750 5749 5749 5748
5862 5861 5857 5851 5828 5800 5793 5806 5804 5804 5807 5811 5808 5803 5795 5786 5788 5785 5788 5790 5790 5787 5781 5774 5768 5766 5765 5763 5762 5761 5760 5759 5758 5757 5757 5756 5756 5755 5754 5754 5753 5752 5751 5750 5749 5748 5747 5747 5746
5865 5863 5855 5844 5818 5802 5796 5807 5807 5810 5814 5810 5803 5802 5794 5784 5787 5787 5790 5791 5790 5786 5780 5771 5766 5765 5763 5762 5761 5759 5758 5757 5756 5756 5755 5755 5754 5753 5753 5752 5751 5750 5750 5749 5748 5747 5746 5745 5744
5866 5862 5857 5835 5810 5812 5812 5814 5815 5811 5811 5811 5806 5794 5792 5792 5793 5793 5792 5792 5789 5784 5780 5770 5765 5763 5761 5760 5759 5758 5757 5756 5755 5754 5753 5753 5752 5752 5751 5750 5749 5748 5748 5747 5746 5745 5744 5743 5742
5871 5860 5839 5821 5813 5818 5822 5822 5820 5811 5806 5808 5805 5791 5784 5791 5797 5795 5791 5790 5787 5785 5780 5770 5763 5761 5760 5758 5757 5756 5755 5754 5753 5752 5752 5751 5751 5750 5749 5749 5748 5747 5746 5745 5745 5744 5743 5742 5741
5864 5858 5830 5813 5813 5820 5826 5828 5822 5813 5808 5807 5804 5792 5782 5790 5791 5791 5791 5788 5787 5783 5778 5769 5762 5760 5758 5757 5756 5755 5754 5753 5752 5751 5750 5750 5749 5748 5748 5747 5746 5746 5745 5744 5743 5742 5741 5741 5740
5858 5847 5827 5822 5817 5817 5824 5832 5823 5815 5808 5807 5809 5793 5785 5788 5791 5791 5789 5786 5784 5781 5778 5771 5766 5760 5757 5756 5755 5754 5753 5751 5750 5750 5749 5748 5747 5747 5746 5746 5745 5744 5743 5742 5741 5741 5740 5739 5739
5869 5854 5833 5827 5820 5817 5830 5832 5828 5821 5812 5817 5814 5797 5786 5789 5792 5790 5786 5783 5780 5778 5777 5772 5770 5765 5762 5758 5754 5752 5751 5750 5749 5748 5748 5747 5746 5746 5745 5745 5744 5743 5742 5741 5740 5740 5739 5738 5738
5871 5849 5828 5827 5823 5824 5835 5828 5827 5831 5820 5815 5814 5810 5806 5798 5793 5787 5782 5779 5775 5774 5774 5773 5771 5766 5764 5762 5755 5753 5751 5750 5749 5748 5747 5748 5749 5749 5747 5744 5742 5742 5741 5740 5740 5739 5738 5738 5737
5864 5839 5831 5839 5840 5836 5835 5831 5828 5823 5814 5808 5804 5804 5803 5796 5790 5785 5781 5776 5774 5771 5770 5769 5769 5766 5764 5762 5757 5755 5755 5752 5751 5750 5750 5749 5748 5748 5747 5742 5741 5741 5740 5740 5739 5739 5739 5741 5741
5858 5842 5843 5847 5849 5845 5838 5834 5835 5825 5813 5813 5806 5800 5798 5794 5790 5786 5784 5782 5778 5775 5770 5768 5766 5763 5762 5760 5758 5757 5755 5752 5751 5750 5749 5748 5748 5748 5747 5745 5742 5742 5742 5743 5741 5742 5745 5744 5743
5852 5849 5850 5850 5852 5846 5841 5838 5832 5826 5822 5826 5821 5811 5802 5794 5790 5787 5784 5782 5779 5774 5769 5767 5763 5760 5758 5758 5757 5756 5755 5754 5753 5749 5749 5749 5749 5748 5748 5746 5746 5746 5745 5744 5745 5744 5744 5743 5743
5849 5847 5852 5855 5853 5849 5844 5837 5831 5826 5830 5829 5821 5811 5804 5798 5793 5790 5786 5782 5777 5772 5769 5766 5762 5758 5756 5754 5755 5755 5754 5754 5752 5749 5748 5748 5749 5748 5748 5747 5746 5747 5746 5745 5744 5745 5744 5744 5744
5850 5851 5852 5853 5851 5848 5839 5836 5831 5825 5830 5823 5816 5810 5806 5800 5796 5790 5784 5779 5775 5772 5769 5767 5762 5759 5756 5754 5754 5754 5754 5751 5752 5750 5749 5747 5749 5748 5747 5746 5745 5747 5747 5747 5745 5745 5745 5745 5745
5856 5847 5846 5848 5849 5847 5842 5826 5826 5830 5829 5819 5814 5810 5805 5802 5798 5791 5786 5782 5778 5773 5770 5766 5763 5760 5757 5755 5754 5754 5753 5753 5751 5750 5748 5747 5748 5746 5746 5747 5746 5746 5746 5745 5744 5744 5745 5745 5746
5852 5843 5832 5839 5845 5845 5836 5817 5826 5835 5827 5818 5815 5809 5804 5800 5799 5795 5791 5786 5782 5776 5771 5768 5767 5762 5757 5754 5753 5753 5753 5751 5750 5749 5748 5747 5747 5746 5746 5748 5748 5746 5746 5746 5745 5746 5746 5746 5746
5838 5830 5828 5832 5843 5843 5835 5822 5828 5835 5828 5819 5815 5811 5805 5800 5799 5797 5794 5788 5783 5778 5773 5768 5766 5762 5759 5756 5753 5752 5750 5750 5750 5749 5749 5748 5747 5747 5747 5747 5747 5746 5747 5747 5748 5748 5747 5745 5745
5825 5828 5826 5826 5837 5839 5831 5827 5830 5833 5828 5821 5816 5812 5806 5802 5799 5798 5794 5790 5785 5780 5775 5770 5766 5763 5760 5756 5753 5751 5751 5751 5750 5750 5749 5748 5747 5748 5748 5748 5747 5748 5748 5747 5747 5746 5745 5745 5746
5834 5829 5825 5828 5838 5835 5828 5826 5828 5831 5827 5820 5816 5812 5807 5804 5804 5801 5795 5791 5785 5780 5775 5771 5766 5763 5759 5757 5754 5751 5750 5750 5751 5751 5750 5749 5748 5748 5747 5750 5747 5747 5748 5747 5748 5747 5746 5745 5747
5830 5825 5825 5828 5835 5832 5827 5825 5829 5829 5825 5823 5818 5813 5810 5806 5803 5799 5794 5790 5785 5780 5775 5771 5767 5765 5761 5759 5757 5754 5752 5752 5752 5752 5750 5749 5749 5749 5750 5748 5748 5748 5747 5746 5746 5745 5745 5746 5747
5826 5825 5826 5823 5828 5833 5826 5820 5822 5826 5827 5824 5822 5819 5815 5809 5804 5798 5793 5790 5786 5780 5776 5773 5769 5765 5762 5760 5757 5755 5752 5751 5751 5750 5750 5751 5750 5750 5749 5749 5749 5748 5749 5748 5747 5746 5744 5743 5746
5818 5832 5829 5824 5820 5820 5820 5810 5818 5823 5821 5821 5820 5819 5815 5811 5807 5800 5794 5790 5786 5782 5779 5774 5770 5766 5762 5760 5757 5753 5751 5750 5751 5751 5752 5752 5751 5751 5750 5749 5748 5748 5750 5749 5748 5750 5748 5745 5744
5826 5832 5829 5825 5820 5817 5820 5813 5816 5824 5817 5819 5821 5820 5817 5813 5807 5800 5796 5792 5788 5785 5780 5775 5770 5766 5763 5760 5757 5754 5753 5753 5754 5753 5751 5751 5752 5751 5751 5750 5749 5748 5749 5749 5749 5748 5748 5747 5745
5828 5826 5823 5823 5823 5800 5808 5806 5806 5820 5817 5820 5823 5821 5817 5813 5808 5802 5798 5792 5788 5785 5780 5775 5770 5765 5763 5760 5758 5755 5753 5752 5751 5751 5751 5752 5753 5752 5752 5751 5749 5749 5749 5749 5749 5748 5748 5747 5746
5824 5813 5799 5796 5797 5799 5810 5805 5807 5821 5825 5824 5822 5820 5818 5815 5809 5802 5796 5791 5786 5782 5779 5776 5770 5766 5764 5761 5759 5757 5754 5752 5751 5751 5751 5751 5752 5752 5751 5751 5750 5749 5749 5749 5748 5747 5748 5747 5745
5819 5818 5797 5786 5790 5801 5804 5802 5815 5827 5829 5829 5827 5824 5819 5814 5810 5804 5798 5792 5786 5782 5779 5775 5771 5766 5764 5762 5759 5757 5755 5754 5753 5751 5752 5751 5751 5751 5751 5750 5749 5748 5748 5748 5747 5747 5746 5745 5743
5814 5816 5829 5811 5802 5796 5804 5808 5817 5825 5824 5824 5823 5820 5816 5813 5809 5804 5800 5794 5788 5783 5779 5776 5770 5766 5764 5762 5759 5757 5755 5753 5752 5751 5750 5750 5749 5750 5749 5748 5748 5747 5746 5745 5744 5744 5742 5741 5741
5824 5823 5812 5804 5782 5782 5792 5798 5806 5810 5814 5818 5818 5816 5814 5812 5809 5804 5800 5796 5791 5786 5781 5777 5771 5767 5764 5761 5759 5758 5754 5752 5750 5750 5748 5747 5747 5747 5746 5746 5745 5744 5743 5742 5741 5741 5739 5738 5737
5806 5807 5809 5807 5804 5788 5783 5797 5822 5817 5818 5816 5817 5818 5815 5812 5809 5804 5800 5796 5792 5787 5781 5776 5771 5766 5763 5760 5758 5756 5754 5752 5749 5747 5746 5745 5745 5744 5743 5742 5742 5741 5740 5739 5737 5738 5737 5735 5733
5818 5814 5808 5793 5787 5794 5796 5801 5826 5824 5824 5820 5818 5816 5815 5812 5809 5804 5799 5794 5790 5786 5781 5775 5770 5766 5763 5760 5757 5754 5752 5750 5748 5746 5745 5743 5742 5741 5740 5739 5738 5737 5736 5735 5734 5733 5732 5731 5729